Location: Ammerl�gen
(47.2167°N, 9.6000°E)
Time: 22:12:09
(UTC+00:00)

TIGRISAT - Visible Passes

Search period start: 05 December 2021 00:00
Search period end: 15 December 2021 00:00
Orbit: 603 x 689 km, 97.7° (Epoch: 05 December)

Date Brightness Start Highest point End Pass type
(mag) Time Alt. Az. Time Alt. Az. Time Alt. Az.
05 Dec ? 04:36:05 10° SE 04:39:48 30° ENE 04:43:31 10° N visible
05 Dec ? 06:12:46 10° SSW 06:16:28 28° W 06:20:09 10° NW visible
06 Dec ? 05:00:54 10° SSE 05:05:02 53° ENE 05:09:11 10° N visible
07 Dec ? 03:52:38 10° E 03:54:18 12° ENE 03:55:59 10° NE visible
07 Dec ? 05:26:06 10° SSE 05:30:21 83° WSW 05:34:38 10° NNW visible
08 Dec ? 04:16:17 10° ESE 04:19:23 20° ENE 04:22:30 10° NNE visible
08 Dec ? 05:51:42 10° S 05:55:47 45° W 05:59:52 10° NNW visible
09 Dec ? 04:40:44 10° SE 04:44:33 34° ENE 04:48:23 10° N visible
09 Dec ? 06:17:47 10° SSW 06:21:17 25° W 06:24:49 10° NW visible
09 Dec ? 18:12:46 11° S 18:12:46 11° S 18:13:01 10° S visible
10 Dec ? 05:05:38 10° SSE 05:09:48 61° ENE 05:14:00 10° N visible
10 Dec ? 18:38:19 11° SSW 18:38:19 11° SSW 18:38:33 10° SSW visible
11 Dec ? 03:56:56 10° E 03:59:02 14° ENE 04:01:08 10° NNE visible
11 Dec ? 05:30:55 10° S 05:35:09 73° WSW 05:39:25 10° NNW visible
12 Dec ? 04:20:49 10° ESE 04:24:07 22° ENE 04:27:26 10° NNE visible
12 Dec ? 05:56:37 10° SSW 06:00:35 39° W 06:04:36 10° NNW visible
12 Dec ? 17:51:43 12° SSE 17:51:43 12° SSE 17:52:05 10° SSE visible
13 Dec ? 04:45:23 10° SE 04:49:18 38° ENE 04:53:15 10° N visible
13 Dec ? 18:17:15 14° S 18:17:15 14° S 18:17:57 10° S visible
14 Dec ? 05:10:22 10° SSE 05:14:34 69° ENE 05:18:49 10° N visible
14 Dec ? 18:42:48 14° SSW 18:42:48 14° SSW 18:43:24 10° SSW visible
